• Join FlightAware (Why Join?)
  • Login
  • US Flag 
07:37AM EST


 

Airport Tracker/Info


-or-


 

Live Flight TrackerFlight Track Log ✈ FSR411 ✈ 19-Nov-2013 ✈ KCMI - KDET

Flight Track Log - Related Links

Times and Time Zones

All times are in EST time to prevent confusion due to time zone crossing. See the FSR411 flight status page for this flight to view local times or setup timezone preferences in your user account.

Time Position Orientation Groundspeed Altitude Reporting Facility
EST Latitude Longitude Course Direction KTS MPH feet Rate Location/Type
07:40AM 40.0819 -88.2664 70° East 203 234 27,000  Level Chicago Center
07:41AM 40.0986 -88.2069 70° East 207 238 6,700 -8,323 Descending Chicago Center
07:42AM 40.1244 -88.1206 69° East 235 270 9,800 2,878 Climbing Chicago Center
07:43AM 40.1550 -88.0197 68° East 286 329 12,600 2,927 Climbing Chicago Center
07:44AM 40.2042 -87.8664 67° East 366 421 15,800 2,878 Climbing Chicago Center
07:45AM 40.2483 -87.7225 68° East 414 476 18,500 2,780 Climbing Chicago Center
07:46AM 40.2931 -87.5717 69° East 439 505 21,500 2,732 Climbing Chicago Center
07:47AM 40.3403 -87.4158 68° East 454 522 24,100 2,293 Climbing Chicago Center
07:48AM 40.3883 -87.2547 69° East 472 543 26,200 1,403 Climbing Chicago Center
07:49AM 40.4383 -87.0869 69° East 491 565 27,000 390 Climbing Chicago Center
07:50AM 40.4894 -86.9114 69° East 508 585 27,000  Level Chicago Center
07:51AM 40.5525 -86.6989 69° East 516 594 27,000  Level Chicago Center
07:52AM 40.6036 -86.5211 69° East 518 596 27,000  Level Chicago Center
07:53AM 40.6569 -86.3406 69° East 525 604 27,000  Level Chicago Center
07:54AM 40.7036 -86.1747 70° East 521 600 27,000  Level Chicago Center
07:55AM 40.7539 -85.9947 70° East 524 603 27,000 -823 Level Chicago Center
07:56AM 40.8131 -85.7819 70° East 520 598 25,300 -1,463 Descending Chicago Center
07:58AM 40.8608 -85.6097 70° East 511 588 24,000 -1,171 Descending Chicago Center
07:59AM 40.9072 -85.4447 70° East 493 567 22,900 -1,258 Descending Chicago Center
08:00AM 40.9514 -85.2836 70° East 479 551 21,400 -1,403 Descending Chicago Center
08:01AM 40.9964 -85.1250 69° East 470 541 20,000 -1,500 Descending Chicago Center
08:02AM 41.0461 -84.9717 67° East 462 532 18,300 -1,403 Descending Chicago Center
08:03AM 41.1017 -84.7933 67° East 444 511 17,100 -585 Descending Chicago Center
08:04AM 41.1458 -84.6508 68° East 426 490 17,100 -585 Level Chicago Center
08:05AM 41.1914 -84.5047 67° East 430 495 15,900 -1,306 Descending Chicago Center
08:06AM 41.2342 -84.3636 68° East 417 480 14,400 -1,452 Descending Chicago Center
08:07AM 41.2761 -84.2264 68° East 406 467 12,900 -1,452 Descending Chicago Center
08:08AM 41.3181 -84.0908 68° East 403 464 11,400 -919 Descending Chicago Center
08:09AM 41.3644 -83.9433 67° East 382 440 11,000 -220 Descending Chicago Center
08:10AM 41.3892 -83.8478 71° East 355 409 11,000  Level Cleveland Center
08:11AM 41.4267 -83.7239 68° East 361 415 11,000 -194 Level Cleveland Center
08:12AM 41.4647 -83.5994 68° East 364 419 10,600 -583 Descending Cleveland Center
08:12AM 41.5008 -83.5139 61° Northeast 352 405 10,000 -581 Descending Cleveland Center
08:13AM 41.5164 -83.4753 62° Northeast 351 404 10,000 98 Level Cleveland Center
08:13AM 41.5478 -83.3978 62° Northeast 350 403 10,100  Climbing Cleveland Center
08:14AM 41.5628 -83.3586 63° Northeast 352 405 10,000  Descending Cleveland Center
08:14AM 41.5897 -83.2894 62° Northeast 354 407 10,100  Climbing Cleveland Center
08:15AM 41.6097 -83.2403 61° Northeast 355 409 10,000  Descending Cleveland Center
08:15AM 41.6392 -83.1650 62° Northeast 353 406 10,100 97 Climbing Cleveland Center
08:16AM 41.6547 -83.1225 64° Northeast 353 406 10,100 -600 Level Cleveland Center
08:16AM 41.6833 -83.0536 61° Northeast 346 398 9,500 -1,452 Descending Cleveland Center
08:17AM 41.6986 -83.0133 63° Northeast 335 386 8,600 -1,254 Descending Cleveland Center
08:18AM 41.7419 -82.9692 37° Northeast 260 299 8,100 -581 Descending Cleveland Center
08:18AM 41.7586 -82.9667 North 287 330 8,000  Descending Cleveland Center
08:18AM 41.8069 -82.9694 358° North 244 281 8,100 97 Climbing Cleveland Center
08:19AM 41.8303 -82.9681 North 264 304 8,100  Level Cleveland Center
08:20AM 41.8839 -82.9769 353° North 253 291 8,100 -194 Level Cleveland Center
08:20AM 41.9128 -82.9767 360° North 257 296 7,900 -635 Descending Cleveland Center
08:21AM 41.9836 -82.9811 357° North 253 291 7,200 -710 Descending Cleveland Center
08:22AM 42.0175 -82.9836 357° North 247 284 6,800 -1,161 Descending Cleveland Center
08:22AM 42.0525 -82.9844 359° North 249 287 6,000 -1,545 Descending Cleveland Center
08:23AM 42.0925 -82.9883 356° North 238 274 5,100 -1,452 Descending Cleveland Center
08:23AM 42.1183 -82.9889 359° North 243 280 4,500 -1,343 Descending Cleveland Center
08:24AM 42.1675 -82.9956 354° North 235 270 3,600 -1,065 Descending Cleveland Center
08:24AM 42.1842 -82.9936 North 239 275 3,400 -492 Descending Cleveland Center
08:25AM 42.2308 -82.9872 North 227 261 3,100 -381 Descending Cleveland Center
08:25AM 42.2472 -82.9853 North 230 265 3,000  Descending Cleveland Center
08:26AM 42.2944 -82.9761 North 213 245 3,100  Climbing Cleveland Center
08:26AM 42.3061 -82.9711 18° North 221 254 3,000 -358 Descending Cleveland Center
08:27AM 42.3436 -82.9631 North 132 152 2,700 -194 Descending Cleveland Center
08:27AM 42.3506 -82.9667 339° North 190 219 2,800 -1,200 Climbing Cleveland Center
08:28AM 42.3722 -82.9725 349° North 105 121 1,600 -1,756 Descending Cleveland Center